Regional Weather Roundup
Issued by NWS Jackson, KY

Home | Current Version | Previous Version | Graphics & Text | Print | Product List | Glossary On
Versions: 1 2 3 4 5 6 7 8 9 10 11 12 13 14 15 16 17 18 19 20 21 22 23 24 25 26 27
000
ASUS43 KJKL 232210
RWRJKL

EAST KENTUCKY HOURLY WEATHER ROUNDUP
NATIONAL WEATHER SERVICE JACKSON KY
600 PM EDT SUN JUL 23 2017

NOTE: "FAIR" INDICATES FEW OR NO CLOUDS BELOW 12,000 FEET WITH
NO SIGNIFICANT WEATHER AND/OR OBSTRUCTIONS TO VISIBILITY.

* THESE REPORTS ARE NOT UNDER NWS QUALITY CONTROL AND MAY NOT
  REPORT WEATHER SUCH AS PRECIPITATION AND FOG.

KYZ079-080-083-085-087-088-110-112-115-119-120-232300
...EASTERN KENTUCKY...

CITY           SKY/WX    TMP DP  RH WIND       PRES   REMARKS
JACKSON        PTSUNNY   86  69  56 VRB7      29.86F HX  90
LONDON         PTSUNNY   89  70  53 W12       29.85F HX  94
SOMERSET*      MOSUNNY   88  70  55 W10       29.86S HX  92
MONTICELLO*    MOSUNNY   89  78  70 W12G22    29.86F HX 103
WILLIAMSBURG*  PTCLDY    90  73  58 SW6       29.84F HX  98
MIDDLESBORO*   CLOUDY    89  74  61 S6        29.85F HX  97
HARLAN APT*    PTCLDY    88  70  55 SW3       29.86F HX  92
PIKE CO APT*   PTSUNNY   82  72  70 CALM      29.86F
BIG SANDY APT* CLOUDY    84  70  63 CALM      29.85F
MOREHEAD APT*  CLOUDY    82  70  65 NW3       29.87F
ASHLAND*         N/A    N/A N/A N/A MISG        N/A
$$

KYZ035-036-041-042-044-050-067-078-099-232300
...CENTRAL KENTUCKY...

CITY           SKY/WX    TMP DP  RH WIND       PRES   REMARKS
MT STERLING*   MOSUNNY   86  72  62 W7        29.86F HX  92
FLEMING/MASON* MOSUNNY   82  72  71 SW3       29.85F
DANVILLE*      PTSUNNY   86  70  58 W7        29.88R HX  90
LEXINGTON      MOSUNNY   86  70  58 W10       29.86S HX  90
FRANKFORT      MOSUNNY   85  69  58 W7        29.84S
LOUISVILLE     MOSUNNY   89  66  46 W15       29.83S HX  91
LEBANON*         N/A     86  72  62 W9G16     29.86S HX  92
GLASGOW*       MOSUNNY   90  72  55 NW3       29.85S HX  97
BOWLING GREEN  SUNNY     93  75  55 NW10      29.84R HX 104
$$

KYZ091>093-OHZ055-061-077-WVZ005-015-034-035-042-232300
...SOUTHERN OHIO/WEST VIRGINIA...

CITY           SKY/WX    TMP DP  RH WIND       PRES   REMARKS
COVINGTON      MOSUNNY   85  73  67 SW9       29.81S HX  91
COLUMBUS       LGT RAIN  78  74  87 S10       29.78F
DAYTON         TSTM      75  72  90 N13G24    29.80S FOG
WILMINGTON     MOSUNNY   81  75  82 SW13      29.80S
HUNTINGTON     CLOUDY    83  69  62 W3        29.83F
CHARLESTON     PTSUNNY   83  67  58 SW7       29.83F
PINEVILLE*     PTSUNNY   79  72  79 MISG      29.92F
BECKLEY        MOSUNNY   80  63  55 SW7       29.91F
BLUEFIELD      MOSUNNY   78  61  55 W6        29.95F
LOGAN CO APT*    N/A     82  70  65 CALM      29.87F
$$

VAZ002-007-008-TNZ017-027-036-066-071-232300
...SOUTHWEST VIRGINIA/EAST TENNESSEE...

CITY           SKY/WX    TMP DP  RH WIND       PRES   REMARKS
WISE*          PTSUNNY   88  63  42 W9        29.95F
JONESVILLE*      N/A     90  72  55 S7        29.88F HX  96
ABINGDON*      CLOUDY    86  71  60 SW9       29.92S HX  92
BRISTOL        CLOUDY    86  73  65 S7        29.88F HX  93
MORRISTOWN*    CLEAR     90  72  55 W12       29.86S HX  96
SEVIERVILLE*   CLEAR     90  70  51 W10       29.85F HX  95
KNOXVILLE      CLOUDY    85  69  58 SW13      29.86F
LAFOLLETTE*    CLEAR     88  75  66 SW9       29.88F HX  97
OAK RIDGE      CLOUDY    85  74  69 VRB5      29.88  HX  92
CROSSVILLE     MOSUNNY   83  73  72 VRB5      29.93F
NASHVILLE      MOSUNNY   95  72  47 SW7       29.83F HX 103
$$

...KEY TO REMARKS...
VSB - VISIBILITY IN MILES
WCI - WIND CHILL INDEX
HX  - HEAT INDEX

$$




USA.gov is the U.S. government's official web portal to all federal, state and local government web resources and services.